Location: Beneden-Haastrecht
(52.0012°N, 4.7557°E)
Time: 03:22:28
(UTC+00:00)

COSMO-SKYMED 1 - Pass Details

Date: 24 October 2020
Orbit: 621 x 623 km, 97.9° (Epoch: 24 November)

Event Time Altitude Azimuth Distance (km) Brightness Sun altitude
Rises 17:05:25 0° 22° (NNE) 2,918 5.7 -6.5°
Reaches altitude 10° 17:07:53 10° 34° (NE) 2,005 4.8 -6.9°
Maximum altitude 17:11:40 28° 94° (E) 1,177 3.5 -7.5°
Drops below altitude 10° 17:15:24 10° 154° (SSE) 1,990 5.0 -8.0°
Sets 17:17:50 0° 166° (SSE) 2,890 5.9 -8.4°
